Rochester/St. Mary\'s Hospita, MN

6:04 AM CDT on June 23, 2018 (GMT -0500)
Rochester/St. Mary\'s Hospita

Weather History for K9MN - October, 2017

Change the Weather History Date:

Thursday, October 12, 2017

  Actual Average (KRST) Record (KRST)
Temperature  
Mean Temperature 56 °F -  
Max Temperature 61 °F 56 °F 85 °F (1975)
Min Temperature 52 °F 38 °F 23 °F (1988)
Degree Days  
Heating Degree Days 8    
Growing Degree Days 6 (Base 50)    
Moisture  
Dew Point 51 °F    
Average Humidity 88    
Maximum Humidity 100    
Minimum Humidity 65    
Precipitation  
Precipitation 0.00 in - - ()
Sea Level Pressure  
Sea Level Pressure 30.08 in    
Wind  
Wind Speed 8 mph (SE)    
Max Wind Speed 15 mph    
Max Gust Speed 22 mph    
Visibility 10 miles    
Events      
Averages and records for this station are not official NWS values.
T = Trace of Precipitation, MM = Missing Value Source: NWS Daily Summary

Daily Weather History Graph

Daily Weather History Graph

Search for Another Location

Airport or City:

Astronomy

Oct. 12, 2017 Rise Set
Actual Time 7:21 AM CDT 6:30 PM CDT
Civil Twilight 6:52 AM CDT 6:59 PM CDT
Nautical Twilight 6:18 AM CDT 7:33 PM CDT
Astronomical Twilight 5:45 AM CDT 8:06 PM CDT
Moon No Moon Rise 2:39 PM CDT (10/12)
Length of Visible Light 12h 07m
Length of Day
11h 09m
Waning Gibbous, 48% of the Moon is Illuminated
Oct 12
Waning Gibbous
Oct 19
New
Oct 27
First Quarter
Nov 4
Full
Nov 10
Last Quarter

Hourly Weather History & Observations

Time (CDT) Temp. Dew Point Humidity Pressure Visibility Wind Dir Wind Speed Gust Speed Precip Events Conditions
12:12 AM 52.3 °F 50.5 °F 94% 30.17 in 10.0 mi ESE 6.9 mph - N/A   Overcast
12:31 AM 52.5 °F 50.7 °F 94% 30.18 in 10.0 mi SE 5.8 mph - N/A   Overcast
12:52 AM 52.7 °F 50.9 °F 94% 30.18 in 10.0 mi ESE 6.9 mph - N/A   Overcast
1:12 AM 52.7 °F 51.1 °F 94% 30.17 in 10.0 mi ESE 8.1 mph - N/A   Overcast
1:32 AM 52.7 °F 51.1 °F 94% 30.17 in 10.0 mi ESE 6.9 mph - N/A   Overcast
1:52 AM 52.7 °F 51.3 °F 95% 30.17 in 10.0 mi SE 6.9 mph - N/A   Overcast
2:12 AM 52.9 °F 51.8 °F 96% 30.17 in 10.0 mi ESE 8.1 mph - N/A   Overcast
2:31 AM 53.1 °F 51.8 °F 95% 30.17 in 10.0 mi ESE 9.2 mph - N/A   Overcast
2:52 AM 52.7 °F 51.8 °F 97% 30.17 in 10.0 mi ESE 8.1 mph - N/A   Overcast
3:12 AM 52.7 °F 52.0 °F 97% 30.17 in 10.0 mi ESE 8.1 mph - N/A   Overcast
3:31 AM 52.7 °F 51.8 °F 97% 30.16 in 10.0 mi ESE 9.2 mph - N/A   Overcast
3:52 AM 52.7 °F 51.8 °F 97% 30.16 in 10.0 mi ESE 8.1 mph - N/A   Overcast
4:12 AM 52.7 °F 51.8 °F 97% 30.16 in 10.0 mi ESE 8.1 mph - N/A   Overcast
4:31 AM 52.7 °F 51.8 °F 97% 30.16 in 10.0 mi ESE 8.1 mph - N/A   Overcast
4:52 AM 52.7 °F 52.0 °F 97% 30.15 in 10.0 mi ESE 5.8 mph - N/A   Overcast
5:12 AM 52.9 °F 52.0 °F 97% 30.15 in 10.0 mi SE 9.2 mph - N/A   Overcast
5:31 AM 52.9 °F 52.0 °F 97% 30.15 in 10.0 mi ESE 5.8 mph - N/A   Overcast
5:52 AM 52.9 °F 52.2 °F 97% 30.14 in 10.0 mi ESE 6.9 mph - N/A   Overcast
6:12 AM 52.7 °F 52.2 °F 98% 30.14 in 10.0 mi ESE 8.1 mph - N/A   Overcast
6:31 AM 52.9 °F 52.7 °F 99% 30.13 in 10.0 mi ESE 8.1 mph - N/A   Overcast
6:52 AM 53.1 °F 52.9 °F 99% 30.13 in 10.0 mi ESE 8.1 mph - N/A   Overcast
7:12 AM 53.1 °F 53.1 °F 100% 30.13 in 10.0 mi SE 9.2 mph - N/A   Overcast
7:31 AM 53.1 °F 53.1 °F 100% 30.13 in 10.0 mi ESE 6.9 mph - N/A   Overcast
7:52 AM 53.1 °F 52.9 °F 99% 30.12 in 10.0 mi ESE 8.1 mph - N/A   Overcast
8:12 AM 53.2 °F 52.9 °F 99% 30.12 in 10.0 mi SE 5.8 mph - N/A   Overcast
8:32 AM 53.4 °F 53.1 °F 99% 30.13 in 10.0 mi SE 6.9 mph - N/A   Overcast
8:52 AM 53.6 °F 53.1 °F 98% 30.13 in 10.0 mi SE 6.9 mph - N/A   Overcast
9:12 AM 53.6 °F 52.9 °F 97% 30.12 in 10.0 mi SE 6.9 mph - N/A   Overcast
9:32 AM 53.8 °F 52.9 °F 97% 30.12 in 10.0 mi SE 8.1 mph - N/A   Overcast
9:52 AM 54.0 °F 52.9 °F 96% 30.12 in 10.0 mi SE 10.4 mph 17.3 mph N/A   Overcast
10:12 AM 54.5 °F 52.9 °F 94% 30.11 in 10.0 mi SE 11.5 mph 19.6 mph N/A   Overcast
10:52 AM 54.9 °F 52.7 °F 92% 30.11 in 10.0 mi SE 8.1 mph 18.4 mph N/A   Overcast
11:12 AM 55.4 °F 52.9 °F 91% 30.10 in 10.0 mi SE 8.1 mph - N/A   Overcast
11:32 AM 55.8 °F 52.7 °F 89% 30.10 in 10.0 mi SE 10.4 mph 16.1 mph N/A   Overcast
11:52 AM 55.9 °F 52.5 °F 88% 30.10 in 10.0 mi SE 6.9 mph - N/A   Overcast
12:12 PM 55.9 °F 52.5 °F 88% 30.10 in 10.0 mi SE 11.5 mph - N/A   Overcast
12:32 PM 56.3 °F 52.7 °F 88% 30.09 in 10.0 mi ESE 10.4 mph - N/A   Overcast
12:52 PM 56.5 °F 52.0 °F 85% 30.08 in 10.0 mi SE 10.4 mph 16.1 mph N/A   Overcast
1:12 PM 56.8 °F 51.8 °F 83% 30.07 in 10.0 mi SE 8.1 mph - N/A   Overcast
1:32 PM 57.7 °F 50.9 °F 78% 30.05 in 10.0 mi SSE 10.4 mph 16.1 mph N/A   Overcast
1:52 PM 58.5 °F 49.3 °F 72% 30.05 in 10.0 mi SSE 15.0 mph 21.9 mph N/A   Overcast
2:12 PM 59.0 °F 49.3 °F 70% 30.04 in 10.0 mi SSE 9.2 mph - N/A   Overcast
2:32 PM 58.5 °F 50.0 °F 73% 30.03 in 10.0 mi SSE 8.1 mph 18.4 mph N/A   Overcast
2:52 PM 59.0 °F 50.0 °F 72% 30.02 in 10.0 mi SE 8.1 mph 17.3 mph N/A   Overcast
3:11 PM 60.1 °F 50.0 °F 69% 30.02 in 10.0 mi SE 12.7 mph 19.6 mph N/A   Overcast
3:32 PM 59.5 °F 50.0 °F 71% 30.02 in 10.0 mi SE 9.2 mph 21.9 mph N/A   Overcast
3:52 PM 59.9 °F 49.5 °F 68% 30.01 in 10.0 mi SSE 10.4 mph 19.6 mph N/A   Overcast
4:11 PM 60.4 °F 49.3 °F 67% 30.01 in 10.0 mi SSE 12.7 mph 18.4 mph N/A   Overcast
4:32 PM 61.0 °F 49.3 °F 65% 30.00 in 10.0 mi SSE 5.8 mph - N/A   Overcast
4:52 PM 61.0 °F 49.6 °F 66% 29.99 in 10.0 mi SE 13.8 mph 18.4 mph N/A   Scattered Clouds
5:11 PM 60.1 °F 49.5 °F 68% 29.98 in 10.0 mi SE 11.5 mph 21.9 mph N/A   Scattered Clouds
5:32 PM 59.9 °F 49.5 °F 68% 29.97 in 10.0 mi SE 12.7 mph 21.9 mph N/A   Scattered Clouds
5:52 PM 59.2 °F 49.5 °F 70% 29.97 in 10.0 mi SE 13.8 mph 17.3 mph N/A   Clear
6:11 PM 58.5 °F 49.8 °F 73% 29.97 in 10.0 mi SE 10.4 mph 20.7 mph N/A   Clear
6:32 PM 57.6 °F 50.2 °F 76% 29.97 in 10.0 mi SE 9.2 mph - N/A   Clear
6:52 PM 56.8 °F 50.9 °F 80% 29.98 in 10.0 mi SE 8.1 mph - N/A   Scattered Clouds
7:12 PM 56.3 °F 50.9 °F 82% 29.98 in 10.0 mi SE 6.9 mph - N/A   Scattered Clouds
7:32 PM 55.4 °F 50.9 °F 85% 29.98 in 10.0 mi SE 8.1 mph - N/A   Scattered Clouds
7:52 PM 54.5 °F 50.9 °F 88% 29.98 in 10.0 mi SE 9.2 mph - N/A   Clear
8:12 PM 54.1 °F 51.1 °F 89% 29.98 in 10.0 mi SE 8.1 mph - N/A   Clear
8:32 PM 53.8 °F 51.1 °F 91% 29.99 in 10.0 mi SE 5.8 mph - N/A   Clear
8:51 PM 53.6 °F 51.3 °F 92% 29.99 in 10.0 mi SE 5.8 mph - N/A   Clear
9:12 PM 53.8 °F 51.4 °F 92% 29.99 in 10.0 mi SSE 5.8 mph - N/A   Clear
9:32 PM 53.8 °F 51.4 °F 92% 30.00 in 10.0 mi SE 5.8 mph - N/A   Clear
9:52 PM 53.6 °F 51.4 °F 92% 30.01 in 10.0 mi SE 6.9 mph - N/A   Clear
10:12 PM 53.4 °F 51.4 °F 93% 30.02 in 10.0 mi SSE 8.1 mph - N/A   Clear
10:32 PM 53.6 °F 51.4 °F 92% 30.04 in 10.0 mi South 8.1 mph - N/A   Mostly Cloudy
10:52 PM 53.6 °F 51.3 °F 92% 30.04 in 10.0 mi SSE 6.9 mph - N/A   Overcast
11:12 PM 54.0 °F 51.3 °F 91% 30.04 in 10.0 mi South 9.2 mph - N/A   Overcast
11:32 PM 54.5 °F 50.9 °F 88% 30.05 in 10.0 mi SSW 6.9 mph - N/A   Overcast
11:52 PM 54.3 °F 50.7 °F 88% 30.04 in 10.0 mi South 11.5 mph 17.3 mph N/A   Overcast